Tinker AFB, OK

8:10 AM CDT on June 23, 2017 (GMT -0500)
Tinker Air Force Base

Weather History for KTIK - December, 2012

Change the Weather History Date:

Saturday, December 22, 2012

  Actual Average Record
Temperature  
Mean Temperature 48 °F -  
Max Temperature 59 °F 46 °F 69 °F (2015)
Min Temperature 36 °F 26 °F 6 °F (1998)
Degree Days  
Heating Degree Days 18    
Moisture  
Dew Point 16 °F    
Average Humidity 31    
Maximum Humidity 58    
Minimum Humidity 15    
Precipitation  
Precipitation 0.00 in - - ()
Sea Level Pressure  
Sea Level Pressure 30.08 in    
Wind  
Wind Speed 13 mph (South)    
Max Wind Speed 21 mph    
Max Gust Speed 25 mph    
Visibility 10 miles    
Events      
Averages and records for this station are not official NWS values.
T = Trace of Precipitation, MM = Missing Value Source: NWS Daily Summary

Daily Weather History Graph

Daily Weather History Graph

Search for Another Location

Airport or City:

Trip Planner

Search our weather history database for the weather conditions in past years. The results will help you decide how hot, cold, wet, or windy it might be!

Date:

Astronomy

Dec. 22, 2012 Rise Set
Actual Time 7:35 AM CST 5:21 PM CST
Civil Twilight 7:07 AM CST 5:49 PM CST
Nautical Twilight 6:35 AM CST 6:21 PM CST
Astronomical Twilight 6:04 AM CST 6:52 PM CST
Moon 1:34 PM CST (12/22) 2:28 AM CST (12/22)
Length of Visible Light 10h 42m
Length of Day
9h 45m
Waxing Gibbous, 74% of the Moon is Illuminated
Dec 22
Waxing Gibbous
Dec 28
Full
Jan 4
Last Quarter
Jan 11
New
Jan 18
First Quarter

Hourly Weather History & Observations

Time (CST) Temp. Windchill Dew Point Humidity Pressure Visibility Wind Dir Wind Speed Gust Speed Precip Events Conditions
12:55 AM 38.1 °F 30.7 °F 10.8 °F 32% 30.20 in 10.0 mi South 11.5 mph - N/A   Clear
1:55 AM 37.6 °F 30.0 °F 10.0 °F 32% 30.19 in 10.0 mi South 11.5 mph - N/A   Clear
2:55 AM 36.9 °F 29.6 °F 9.0 °F 32% 30.19 in 10.0 mi South 10.4 mph - N/A   Clear
3:55 AM 36.3 °F 28.9 °F 10.0 °F 34% 30.17 in 10.0 mi South 10.4 mph - N/A   Clear
4:55 AM 37.0 °F 30.4 °F 10.6 °F 34% 30.17 in 10.0 mi South 9.2 mph - N/A   Clear
6:55 AM 36.1 °F 29.3 °F 11.8 °F 37% 30.17 in 10.0 mi South 9.2 mph - N/A   Clear
7:55 AM 36.7 °F 29.4 °F 12.4 °F 37% 30.18 in 10.0 mi South 10.4 mph - N/A   Clear
8:55 AM 42.6 °F 35.2 °F 10.9 °F 28% 30.17 in 10.0 mi SSW 15.0 mph - N/A   Clear
9:55 AM 47.3 °F - 11.5 °F 24% 30.16 in 10.0 mi SSW 16.1 mph - N/A   Clear
10:55 AM 51.3 °F - 12.7 °F 22% 30.15 in 10.0 mi SSW 19.6 mph - N/A   Clear
11:55 AM 54.1 °F - 10.4 °F 17% 30.11 in 10.0 mi SSW 19.6 mph - N/A   Clear
12:55 PM 58.6 °F - 10.4 °F 15% 30.06 in 10.0 mi SSW 19.6 mph - N/A   Clear
1:55 PM 59.2 °F - 11.1 °F 15% 30.03 in 10.0 mi SSW 20.7 mph - N/A   Clear
2:55 PM 57.7 °F - 12.2 °F 17% 30.02 in 10.0 mi SSW 18.4 mph - N/A   Clear
3:55 PM 58.6 °F - 11.3 °F 15% 30.00 in 10.0 mi South 19.6 mph 25.3 mph N/A   Clear
4:55 PM 55.9 °F - 14.2 °F 19% 30.00 in 10.0 mi South 13.8 mph - N/A   Clear
5:55 PM 53.1 °F - 17.4 °F 25% 29.98 in 10.0 mi South 10.4 mph - N/A   Clear
6:55 PM 50.9 °F - 19.4 °F 29% 29.99 in 10.0 mi South 8.1 mph - N/A   Clear
7:55 PM 48.0 °F - 24.8 °F 40% 29.99 in 10.0 mi South 9.2 mph - N/A   Mostly Cloudy
8:55 PM 47.3 °F - 27.1 °F 46% 29.99 in 10.0 mi South 10.4 mph - N/A   Clear
9:55 PM 47.3 °F - 28.2 °F 48% 29.98 in 10.0 mi South 10.4 mph - N/A   Scattered Clouds
10:55 PM 46.2 °F 41.2 °F 29.7 °F 53% 29.97 in 10.0 mi South 10.4 mph - N/A   Scattered Clouds
11:55 PM 45.7 °F 40.2 °F 31.8 °F 58% 29.94 in 10.0 mi South 11.5 mph - N/A   Mostly Cloudy